Probability
0 0 0 0 0 0 0 0 0 0 0 0 0 0 0 0 0 0 0 0 0 0 1 1 1 1 1 0 1 3 4 4 3 2 1 0 0 0 0 0 0 0 0 0
0 0 0 0 0 0 0 0 0 0 0 0 0 0 0 0 0 0 0 0 0 0 0 0 0 0 0 1 2 3 4 3 1 1 0 0 0 0 0 0 0 0 0 0
0 0 0 0 0 0 0 0 0 0 0 0 0 0 0 0 0 0 0 0 0 0 0 0 0 0 0 1 2 2 2 1 0 0 0 0 0 0 0 0 0 0 0 0
0 0 0 0 0 0 0 0 0 0 0 0 0 0 0 0 0 0 0 0 0 0 0 0 0 0 0 0 1 1 0 0 0 0 0 0 0 0 0 0 0 0 0 0
0 0 0 0 0 0 0 0 0 0 0 0 0 0 0 0 0 0 0 0 0 0 0 0 0 0 0 0 0 0 0 0 0 0 0 0 0 0 0 0 0 0 0 0
0 0 0 0 0 0 0 0 0 0 0 0 0 0 0 0 0 0 0 0 0 0 0 0 0 0 0 0 0 0 0 0 0 0 0 0 0 0 0 0 0 0 0 0
0 0 0 0 0 0 0 0 0 0 0 0 0 0 0 0 0 0 0 0 0 0 0 0 0 0 0 0 0 0 0 0 0 0 0 0 0 0 0 0 0 0 0 0
0 0 0 0 0 0 0 0 0 0 0 0 0 0 0 0 0 0 0 0 0 0 0 0 0 0 0 0 0 0 0 0 0 0 0 0 0 0 0 0 0 0 0 0
0 0 0 0 0 0 0 0 0 0 0 0 0 0 0 0 0 0 0 0 0 0 0 0 0 0 0 0 0 0 0 0 0 0 0 0 0 0 0 0 0 0 0 0
0 0 0 0 0 0 0 0 0 0 0 0 0 0 0 0 0 0 0 0 0 0 0 0 0 0 0 0 0 0 0 0 0 0 0 0 0 0 0 0 0 0 0 0
0 0 0 0 0 0 0 0 0 0 0 0 0 0 0 0 0 0 0 0 0 0 0 0 0 0 0 0 0 0 0 0 0 0 0 0 0 0 0 0 0 0 0 0
0 0 0 0 0 0 0 0 0 0 0 0 0 0 0 0 0 0 0 0 0 0 0 0 0 0 0 0 0 0 0 0 0 0 0 0 0 0 0 0 0 0 0 0
0 0 0 0 0 0 0 0 0 0 0 0 0 0 0 0 0 0 0 0 0 0 0 0 0 0 0 0 0 0 0 0 0 0 0 0 0 0 0 0 0 0 0 0
0 0 0 0 0 0 0 0 0 0 0 0 0 0 0 0 0 0 0 0 0 0 0 0 0 0 0 0 0 0 0 0 0 0 0 0 0 0 0 0 0 0 0 0
0 0 0 0 0 0 0 0 0 0 0 0 0 0 0 0 0 0 0 0 0 0 0 0 0 0 0 0 0 0 0 0 0 0 0 0 0 0 0 0 0 0 0 0
0 0 0 0 0 0 0 0 0 0 0 0 0 0 0 0 0 0 0 0 0 0 0 0 0 0 0 0 0 0 0 0 0 0 0 0 0 0 0 0 0 0 0 0
0 0 0 0 0 0 0 0 0 0 0 0 0 0 0 0 0 0 0 0 0 0 0 0 0 0 0 0 0 0 0 0 0 0 0 0 0 0 0 0 0 0 0 0
0 0 0 0 0 0 0 0 0 0 0 0 0 0 0 0 0 0 0 0 0 0 0 0 0 0 0 0 0 0 0 0 0 0 0 0 0 0 0 0 0 0 0 0
0 0 0 0 0 0 0 0 0 0 0 0 0 0 0 0 0 0 0 0 0 0 0 0 0 0 0 0 0 0 0 0 0 0 0 0 0 0 0 0 0 0 0 0
0 0 0 0 0 0 0 0 0 0 0 0 0 0 0 0 0 0 0 0 0 0 0 0 0 0 0 0 0 0 0 0 0 0 0 0 0 0 0 0 0 0 0 0
0 0 0 0 0 0 0 0 0 0 0 0 0 0 0 0 0 0 0 0 0 0 0 0 0 0 0 0 0 0 0 0 0 0 0 0 0 0 0 0 0 0 0 0
0 0 0 0 0 0 0 0 0 0 0 0 0 0 0 0 0 0 0 0 0 0 0 0 0 0 0 0 0 0 0 0 0 0 0 0 0 0 0 0 0 0 0 0
0 0 0 0 0 0 0 0 0 0 0 0 0 0 0 0 0 0 0 0 0 0 0 0 0 0 0 0 0 0 0 0 0 0 0 0 0 0 0 0 0 0 0 0
0 0 0 0 0 0 0 0 0 0 0 0 0 0 0 0 0 0 0 0 0 0 0 0 0 0 0 0 0 0 0 0 0 0 0 0 0 0 0 0 0 0 0 0
0 0 0 0 0 0 0 0 0 0 0 0 0 0 0 0 0 0 0 0 0 0 0 0 0 0 0 0 0 0 0 0 0 0 0 0 0 0 0 0 0 0 0 0
0 0 0 0 0 0 0 0 0 0 0 0 0 0 0 0 0 0 0 0 0 0 0 0 0 0 0 0 0 0 0 0 0 0 0 0 0 0 0 0 0 0 0 0
0 0 0 0 0 0 0 0 0 0 0 0 0 0 0 0 0 0 0 0 0 0 0 0 0 0 0 0 0 0 0 0 0 0 0 0 0 0 0 0 0 0 0 0
Wind_Speed
5 4 3 4 5 7 7 8 8 8 8 9 5 6 6 5 5 5 5 6 8 9 9 8 9 9 10 10 9 10 10 10 11 10 8 8 7 8 7 7 8 7 7 7
2 2 3 3 5 6 7 5 6 5 7 4 4 3 2 1 1 3 4 5 6 7 8 9 10 10 9 10 10 10 11 12 9 8 8 8 8 8 7 8 7 7 8 8
3 2 1 5 6 5 4 4 5 7 6 2 2 2 2 3 2 1 2 3 3 4 6 8 8 9 10 9 7 8 9 8 8 8 9 9 8 8 8 8 7 8 8 8
1 1 4 7 2 3 3 3 3 3 3 1 1 1 3 4 3 3 3 2 1 2 3 4 4 5 5 6 7 8 8 7 7 8 8 7 7 8 8 7 7 7 8 9
3 2 6 5 2 3 3 3 4 4 3 1 0 2 4 6 5 4 4 3 2 1 1 1 1 3 5 5 5 6 7 8 8 8 8 8 9 9 8 6 7 7 7 9
4 3 6 7 1 2 3 4 3 3 2 1 3 2 2 6 6 7 7 6 6 6 6 6 3 4 5 3 4 5 6 5 5 6 7 8 8 8 6 6 8 8 8 9
3 4 8 5 1 4 3 6 1 2 1 2 3 2 1 4 6 7 8 9 9 9 9 7 4 5 4 2 1 2 1 2 3 4 6 6 6 5 5 6 6 7 8 8
4 3 8 2 3 5 5 1 2 2 3 5 5 4 5 6 7 8 9 10 10 11 10 8 7 6 4 2 2 1 1 1 1 2 3 3 4 4 4 5 6 7 7 8
8 8 5 2 3 2 3 2 2 3 4 7 7 6 6 7 7 9 9 9 8 10 9 8 7 6 5 4 3 3 3 2 2 1 1 1 2 3 3 3 4 5 5 7
4 7 4 3 2 2 3 4 5 6 7 8 9 7 7 6 7 8 8 9 9 10 9 8 7 7 5 4 4 4 4 3 3 2 2 2 1 1 2 3 4 5 6 7
5 6 3 2 3 4 5 8 9 8 7 8 10 8 6 6 6 6 6 6 6 7 7 6 6 6 6 5 4 5 4 3 3 2 2 2 2 2 3 4 5 5 6 6
7 6 5 3 3 6 8 9 10 10 8 7 8 8 7 6 4 4 5 4 5 6 5 4 5 5 6 5 4 4 4 4 3 3 2 2 3 4 5 6 9 10 11 10
3 1 3 3 5 5 7 8 9 9 10 8 6 6 6 5 4 4 4 4 4 3 3 3 4 5 5 5 4 4 3 3 3 3 3 3 3 4 6 7 8 10 11 12
1 4 5 4 5 7 9 10 10 9 8 7 6 5 5 5 4 4 3 1 1 1 2 3 3 4 4 4 3 3 3 3 3 3 3 4 4 4 5 6 8 7 8 11
5 5 7 8 9 9 8 9 10 8 7 6 5 5 5 4 3 1 0 0 1 2 2 3 3 4 4 3 3 3 3 3 3 4 4 4 5 5 5 6 7 8 8 9
8 11 11 12 11 9 8 8 8 6 5 4 4 3 2 2 1 0 1 1 1 2 3 3 4 5 4 3 3 3 3 7 6 4 5 5 5 6 6 7 7 7 8 8
9 8 9 10 9 8 7 5 5 4 4 3 2 1 1 1 1 2 3 3 2 3 3 3 4 5 4 3 3 3 4 6 9 6 5 6 6 6 7 7 7 8 8 9
10 9 9 8 7 7 5 5 4 3 1 1 1 1 0 0 2 3 4 4 3 4 4 3 3 4 4 4 3 3 4 5 5 6 6 6 7 7 7 8 8 9 8 8
11 11 10 9 7 5 3 2 1 0 1 1 0 1 2 2 3 3 3 3 3 4 5 4 5 4 4 5 5 3 4 5 6 6 6 8 8 7 7 8 8 8 9 8
10 9 8 6 4 2 1 0 1 2 2 1 1 1 2 3 3 2 2 2 3 3 3 3 3 3 4 5 7 4 5 6 7 7 7 7 8 8 8 8 8 8 8 7
7 6 5 3 1 1 1 1 2 2 2 1 1 3 3 4 3 2 1 3 3 2 2 3 3 3 4 5 6 5 5 6 7 7 7 8 8 8 8 8 8 8 8 8
3 2 1 1 1 2 3 2 2 2 2 2 2 1 2 3 3 2 2 2 2 3 3 3 3 5 6 6 5 5 6 7 6 6 7 7 7 8 8 8 8 8 8 8
1 1 2 2 2 3 4 3 2 1 1 2 2 2 2 2 1 1 2 2 2 3 3 3 5 8 8 6 5 6 6 7 7 7 7 7 7 7 8 9 8 8 8 8
2 2 3 3 2 1 2 3 2 1 1 1 2 2 1 1 1 1 0 2 3 4 4 5 7 9 8 5 5 6 6 6 7 7 7 7 7 7 8 8 8 8 8 10
2 3 2 2 1 2 2 2 2 2 2 2 3 3 2 0 1 1 2 3 4 4 4 6 8 9 6 5 5 6 6 6 7 7 7 7 8 8 8 8 8 8 8 8
1 1 1 1 1 2 1 1 1 2 1 1 2 2 2 2 2 2 3 4 5 5 4 4 5 6 5 5 6 6 6 7 7 7 8 8 8 8 8 8 10 8 8 8
2 2 2 2 2 2 1 1 1 2 2 1 1 1 1 2 2 3 4 4 4 4 4 4 4 4 5 5 5 6 6 6 6 7 7 7 7 7 8 10 8 8 8 8
Wind_Direction
231 233 192 215 215 183 190 195 195 230 234 261 272 271 266 253 231 222 225 218 211 209 207 200 197 196 195 194 188 182 182 192 204 203 199 200 204 207 209 210 215 216 218 226
266 247 211 249 251 208 212 211 222 247 262 266 292 300 305 301 197 216 236 228 216 210 204 200 199 198 194 195 189 180 189 201 202 194 196 204 209 209 210 215 217 215 220 226
253 314 36 261 241 208 209 210 197 220 245 321 343 8 1 11 35 338 281 266 233 211 209 207 201 194 195 196 177 181 197 201 195 195 204 210 211 210 215 218 216 220 226 227
158 63 236 249 273 189 191 235 222 240 263 263 201 126 52 33 29 6 350 335 283 230 222 216 193 185 181 160 168 187 200 206 201 199 210 210 207 216 220 215 215 223 229 229
123 194 276 287 237 167 167 261 219 222 246 250 165 80 41 19 15 14 357 341 327 359 79 96 138 155 139 151 167 187 206 212 208 203 208 207 212 220 218 214 221 222 226 226
133 174 243 252 214 143 105 279 238 197 228 352 47 72 354 351 6 16 22 24 26 39 49 50 56 106 122 149 169 208 220 221 209 199 206 214 219 221 216 216 228 229 235 233
161 219 261 256 168 117 166 248 257 148 139 83 92 141 257 6 30 30 34 39 45 51 49 39 49 92 97 96 208 232 206 190 191 200 210 218 222 222 220 223 232 235 243 244
149 205 260 237 139 177 216 261 92 103 107 106 106 88 63 49 44 42 40 40 48 53 45 31 32 62 68 29 338 42 88 127 209 217 229 225 220 233 230 229 239 248 251 258
188 213 236 226 209 211 163 136 123 118 115 114 101 83 69 58 52 49 47 45 49 59 53 37 28 46 54 4 7 37 48 38 19 15 322 281 237 244 249 237 244 254 254 261
243 262 246 240 220 169 147 130 119 116 116 113 102 88 76 67 58 55 50 48 50 57 53 37 25 35 38 20 31 53 49 32 29 27 1 334 306 272 257 254 255 260 261 264
253 270 281 258 186 149 121 110 106 101 104 111 107 98 92 81 67 62 60 56 60 67 62 41 27 28 22 22 45 56 48 35 25 16 351 334 319 284 269 256 251 258 264 263
227 229 190 211 164 141 128 124 124 118 103 97 105 109 100 88 77 72 67 63 63 60 54 35 27 23 14 15 38 50 36 19 7 354 343 335 327 319 291 275 285 277 266 264
235 149 139 118 104 105 113 114 113 110 110 105 95 103 104 98 89 83 76 69 70 63 48 27 21 11 359 4 27 44 33 3 347 343 337 331 326 320 314 310 297 289 282 279
130 109 95 92 102 99 103 101 97 92 94 101 104 102 100 95 88 84 79 74 81 55 25 11 6 349 338 351 12 15 3 349 341 324 318 313 308 302 298 301 308 306 300 294
44 81 110 103 95 95 98 102 99 95 94 91 95 101 105 107 110 119 214 337 33 19 357 352 344 323 325 342 352 345 337 324 317 310 306 302 300 300 299 298 297 298 302 303
74 78 89 90 88 86 88 95 101 101 102 100 101 107 120 129 135 259 311 345 9 328 316 317 306 302 319 331 330 323 316 318 322 311 308 308 306 304 304 303 302 302 301 303
84 80 83 85 83 78 74 80 94 98 95 98 117 122 104 79 22 329 318 319 303 285 286 284 287 304 323 329 324 315 314 316 321 318 310 306 305 303 302 301 301 300 300 302
85 88 90 93 93 87 76 71 77 86 112 189 163 122 117 241 282 293 305 321 325 318 309 300 304 321 334 336 329 316 312 310 313 311 310 309 306 304 304 303 303 303 304 306
82 85 85 85 86 89 91 87 79 295 278 275 247 259 269 270 276 293 313 323 317 308 309 327 342 348 337 335 340 326 322 320 319 315 313 310 309 309 308 306 306 306 306 307
80 82 85 87 91 100 103 298 289 300 300 274 263 296 301 299 302 309 315 294 271 265 291 328 348 350 343 341 349 338 332 327 323 319 317 315 314 312 311 310 310 310 311 310
75 78 82 82 45 345 313 307 306 302 306 291 248 258 272 291 305 302 293 297 303 330 354 0 6 360 356 352 351 345 339 333 328 324 322 321 319 318 316 316 315 316 316 315
75 83 109 279 307 314 319 323 310 297 305 307 296 280 288 300 311 316 280 259 301 357 16 16 14 13 8 2 354 348 342 338 334 330 328 327 324 322 322 323 320 319 318 316
322 293 293 299 300 303 319 330 336 331 319 310 306 296 280 279 283 289 308 335 7 33 39 30 23 20 14 7 356 352 349 346 342 337 333 329 326 325 324 323 322 321 321 321
294 303 296 296 303 310 313 316 335 339 331 323 318 304 284 315 356 3 294 28 48 58 50 37 32 26 20 13 7 2 357 351 345 339 336 333 332 331 330 329 328 328 326 326
310 307 311 315 301 277 274 296 330 353 4 360 355 360 3 63 151 55 56 62 67 61 52 41 37 30 26 17 10 3 355 350 347 341 338 338 337 336 336 336 337 336 336 337
329 317 308 287 272 280 292 295 298 305 323 336 341 354 16 45 72 78 75 72 69 65 56 41 31 25 20 14 7 1 355 349 348 348 346 344 342 343 342 342 342 343 340 340
6 3 355 355 349 343 326 305 295 299 299 291 303 324 21 56 72 81 81 76 71 62 53 42 30 23 18 14 7 2 359 356 354 353 350 349 348 347 347 346 346 345 345 345